Time,TemperatureF,DewpointF,PressureIn,WindDirection,WindDirectionDegrees,WindSpeedMPH,WindSpeedGustMPH,Humidity,HourlyPrecipIn,Conditions,Clouds,dailyrainin,SoftwareType,DateUTC
2013-08-26 00:14:00,78.0,75.0,30.12,NNE,31,1.0,3.0,90,0.00,,,0.01,,2013-08-26 04:14:00,
2013-08-26 00:44:00,78.0,74.0,30.12,NE,47,0.0,1.0,88,0.00,,,0.01,,2013-08-26 04:44:00,
2013-08-26 00:53:00,78.0,74.0,30.12,NE,39,1.0,1.0,89,0.00,,,0.01,,2013-08-26 04:53:00,
2013-08-26 01:13:00,78.0,74.0,30.11,NE,34,0.0,2.0,89,0.00,,,0.01,,2013-08-26 05:13:00,
2013-08-26 01:23:00,77.0,74.0,30.11,NE,37,1.0,3.0,89,0.00,,,0.01,,2013-08-26 05:23:00,
2013-08-26 01:44:00,77.0,74.0,30.10,NE,46,0.0,1.0,89,0.00,,,0.01,,2013-08-26 05:44:00,
2013-08-26 01:52:00,77.0,74.0,30.09,NE,46,0.0,1.0,89,0.00,,,0.01,,2013-08-26 05:52:00,
2013-08-26 02:12:00,77.0,74.0,30.09,NNE,30,1.0,2.0,89,0.00,,,0.01,,2013-08-26 06:12:00,
2013-08-26 02:22:00,77.0,74.0,30.08,NNE,19,0.0,3.0,89,0.00,,,0.01,,2013-08-26 06:22:00,
2013-08-26 02:42:00,77.0,74.0,30.08,NE,40,1.0,3.0,89,0.00,,,0.01,,2013-08-26 06:42:00,
2013-08-26 02:52:00,77.0,74.0,30.08,NNE,20,2.0,3.0,90,0.00,,,0.01,,2013-08-26 06:52:00,
2013-08-26 03:11:00,77.0,74.0,30.08,NNE,20,2.0,6.0,90,0.00,,,0.01,,2013-08-26 07:11:00,
2013-08-26 03:22:00,77.0,74.0,30.08,NE,43,2.0,7.0,90,0.00,,,0.01,,2013-08-26 07:22:00,
2013-08-26 03:42:00,77.0,74.0,30.07,NNE,32,5.0,8.0,91,0.00,,,0.01,,2013-08-26 07:42:00,
2013-08-26 03:52:00,77.0,74.0,30.07,NNE,30,2.0,6.0,91,0.00,,,0.01,,2013-08-26 07:52:00,
2013-08-26 04:12:00,77.0,74.0,30.06,NE,41,3.0,6.0,91,0.00,,,0.01,,2013-08-26 08:12:00,
2013-08-26 04:22:00,76.0,74.0,30.06,NE,47,2.0,6.0,92,0.00,,,0.01,,2013-08-26 08:22:00,
2013-08-26 04:42:00,76.0,74.0,30.06,NE,43,1.0,9.0,92,0.00,,,0.01,,2013-08-26 08:42:00,
2013-08-26 04:52:00,76.0,74.0,30.06,North,350,3.0,6.0,92,0.00,,,0.01,,2013-08-26 08:52:00,
2013-08-26 05:11:00,76.0,74.0,30.06,NNE,27,2.0,6.0,93,0.00,,,0.01,,2013-08-26 09:11:00,
2013-08-26 05:22:00,76.0,74.0,30.06,NE,54,2.0,8.0,93,0.00,,,0.01,,2013-08-26 09:22:00,
2013-08-26 05:43:00,76.0,74.0,30.07,NE,46,1.0,5.0,93,0.00,,,0.01,,2013-08-26 09:43:00,
2013-08-26 05:53:00,76.0,74.0,30.07,NNE,16,1.0,5.0,93,0.00,,,0.01,,2013-08-26 09:53:00,
2013-08-26 06:13:00,76.0,74.0,30.07,NE,38,2.0,7.0,94,0.00,,,0.01,,2013-08-26 10:13:00,
2013-08-26 06:23:00,76.0,74.0,30.06,ENE,60,1.0,6.0,93,0.00,,,0.01,,2013-08-26 10:23:00,
2013-08-26 06:42:00,75.0,73.0,30.07,NNE,22,2.0,7.0,94,0.00,,,0.01,,2013-08-26 10:42:00,
2013-08-26 06:52:00,75.0,73.0,30.07,North,5,3.0,8.0,94,0.00,,,0.01,,2013-08-26 10:52:00,
2013-08-26 07:12:00,75.0,73.0,30.07,NE,39,2.0,7.0,94,0.00,,,0.01,,2013-08-26 11:12:00,
2013-08-26 07:22:00,75.0,73.0,30.07,NNE,18,1.0,5.0,95,0.00,,,0.01,,2013-08-26 11:22:00,
2013-08-26 07:52:00,75.0,73.0,30.07,NNE,29,2.0,5.0,95,0.00,,,0.01,,2013-08-26 11:52:00,
2013-08-26 08:12:00,75.0,73.0,30.08,ENE,75,3.0,8.0,95,0.00,,,0.01,,2013-08-26 12:12:00,
2013-08-26 08:22:00,76.0,74.0,30.08,NE,50,2.0,9.0,95,0.00,,,0.01,,2013-08-26 12:22:00,
2013-08-26 08:52:00,78.0,75.0,30.09,SE,125,0.0,3.0,92,0.00,,,0.01,,2013-08-26 12:52:00,
2013-08-26 09:12:00,79.0,75.0,30.09,North,11,1.0,3.0,89,0.00,,,0.01,,2013-08-26 13:12:00,
2013-08-26 09:22:00,80.0,76.0,30.09,NNW,331,2.0,6.0,87,0.00,,,0.01,,2013-08-26 13:22:00,
2013-08-26 09:32:00,80.0,76.0,30.09,NNW,331,2.0,6.0,87,0.00,,,0.01,,2013-08-26 13:32:00,
2013-08-26 09:42:00,80.0,76.0,30.09,NNW,331,2.0,6.0,87,0.00,,,0.01,,2013-08-26 13:42:00,
2013-08-26 09:52:00,80.0,76.0,30.09,NNW,331,2.0,6.0,87,0.00,,,0.01,,2013-08-26 13:52:00,
2013-08-26 12:48:00,88.0,75.0,30.09,ENE,72,2.0,10.0,65,0.00,,,0.00,,2013-08-26 16:48:00,
2013-08-26 12:59:00,89.0,74.0,30.09,NE,51,5.0,9.0,62,0.00,,,0.00,,2013-08-26 16:59:00,
2013-08-26 13:12:00,89.0,74.0,30.08,NE,53,2.0,10.0,62,0.00,,,0.00,,2013-08-26 17:12:00,
2013-08-26 13:24:00,89.0,73.0,30.07,NNE,29,3.0,7.0,60,0.00,,,0.00,,2013-08-26 17:24:00,
2013-08-26 13:43:00,88.0,73.0,30.07,East,98,3.0,13.0,62,0.00,,,0.00,,2013-08-26 17:43:00,
2013-08-26 13:53:00,89.0,74.0,30.06,NNE,33,5.0,9.0,61,0.00,,,0.00,,2013-08-26 17:53:00,
2013-08-26 14:12:00,90.0,72.0,30.06,NE,37,3.0,8.0,55,0.00,,,0.00,,2013-08-26 18:12:00,
2013-08-26 14:22:00,90.0,73.0,30.06,NNE,24,3.0,10.0,58,0.00,,,0.00,,2013-08-26 18:22:00,
2013-08-26 14:42:00,90.0,75.0,30.05,NNE,25,7.0,12.0,62,0.00,,,0.00,,2013-08-26 18:42:00,
2013-08-26 14:52:00,89.0,75.0,30.04,NNE,19,6.0,13.0,64,0.00,,,0.00,,2013-08-26 18:52:00,
2013-08-26 15:11:00,90.0,76.0,30.03,NNE,26,5.0,12.0,63,0.00,,,0.00,,2013-08-26 19:11:00,
2013-08-26 15:22:00,90.0,76.0,30.03,NE,37,3.0,10.0,64,0.00,,,0.00,,2013-08-26 19:22:00,
2013-08-26 15:42:00,89.0,75.0,30.03,NNE,12,6.0,12.0,63,0.00,,,0.00,,2013-08-26 19:42:00,
2013-08-26 15:52:00,88.0,74.0,30.02,NNE,15,6.0,12.0,64,0.00,,,0.00,,2013-08-26 19:52:00,
2013-08-26 16:11:00,88.0,75.0,30.01,North,356,3.0,8.0,65,0.00,,,0.00,,2013-08-26 20:11:00,
2013-08-26 16:22:00,87.0,74.0,30.00,North,354,4.0,9.0,65,0.00,,,0.00,,2013-08-26 20:22:00,
2013-08-26 16:43:00,87.0,74.0,30.00,NNW,347,5.0,8.0,65,0.00,,,0.00,,2013-08-26 20:43:00,
2013-08-26 16:52:00,87.0,74.0,30.00,North,358,3.0,8.0,65,0.00,,,0.00,,2013-08-26 20:52:00,
2013-08-26 17:11:00,87.0,74.0,29.99,NNW,344,5.0,8.0,65,0.00,,,0.00,,2013-08-26 21:11:00,
2013-08-26 17:22:00,87.0,74.0,29.98,NNW,345,2.0,6.0,65,0.00,,,0.00,,2013-08-26 21:22:00,
2013-08-26 17:44:00,86.0,75.0,29.98,NW,312,3.0,8.0,71,0.00,,,0.00,,2013-08-26 21:44:00,
2013-08-26 17:55:00,84.0,74.0,29.99,North,9,6.0,10.0,72,0.00,,,0.00,,2013-08-26 21:55:00,
2013-08-26 18:16:00,83.0,75.0,29.99,North,11,6.0,12.0,77,0.00,,,0.00,,2013-08-26 22:16:00,
2013-08-26 18:26:00,83.0,75.0,29.99,North,11,6.0,12.0,77,0.00,,,0.00,,2013-08-26 22:26:00,
2013-08-26 18:34:00,83.0,75.0,29.99,North,11,6.0,12.0,77,0.00,,,0.00,,2013-08-26 22:34:00,
2013-08-26 19:22:00,79.0,75.0,30.00,North,354,1.0,3.0,88,0.00,,,0.01,,2013-08-26 23:22:00,
2013-08-26 19:52:00,80.0,75.0,30.00,NNW,343,2.0,6.0,85,0.00,,,0.01,,2013-08-26 23:52:00,
2013-08-26 20:11:00,80.0,75.0,30.00,NNW,330,0.0,1.0,86,0.00,,,0.01,,2013-08-27 00:11:00,
2013-08-26 20:22:00,80.0,76.0,30.01,NW,311,0.0,0.0,88,0.00,,,0.01,,2013-08-27 00:22:00,
2013-08-26 20:42:00,79.0,76.0,30.02,North,354,1.0,1.0,90,0.00,,,0.01,,2013-08-27 00:42:00,
2013-08-26 20:52:00,79.0,76.0,30.02,North,7,0.0,0.0,90,0.00,,,0.01,,2013-08-27 00:52:00,
2013-08-26 21:12:00,80.0,75.0,30.02,NNE,16,0.0,3.0,86,0.00,,,0.01,,2013-08-27 01:12:00,
2013-08-26 21:22:00,80.0,74.0,30.03,SE,136,3.0,13.0,83,0.00,,,0.01,,2013-08-27 01:22:00,
2013-08-26 21:42:00,77.0,71.0,30.03,ESE,119,5.0,12.0,81,0.00,,,0.01,,2013-08-27 01:42:00,
2013-08-26 21:52:00,76.0,71.0,30.03,SE,144,2.0,9.0,84,0.00,,,0.01,,2013-08-27 01:52:00,
2013-08-26 22:12:00,76.0,72.0,30.02,ESE,115,1.0,7.0,86,0.00,,,0.01,,2013-08-27 02:12:00,
2013-08-26 22:22:00,75.0,71.0,30.01,SSE,152,0.0,1.0,88,0.00,,,0.01,,2013-08-27 02:22:00,
2013-08-26 22:42:00,75.0,72.0,30.02,WNW,282,0.0,3.0,89,0.00,,,0.01,,2013-08-27 02:42:00,
2013-08-26 22:52:00,75.0,72.0,30.02,NE,51,1.0,2.0,89,0.00,,,0.01,,2013-08-27 02:52:00,
2013-08-26 23:12:00,75.0,72.0,30.01,NNW,333,1.0,5.0,89,0.00,,,0.01,,2013-08-27 03:12:00,
2013-08-26 23:23:00,75.0,72.0,30.02,NNW,342,1.0,3.0,89,0.00,,,0.01,,2013-08-27 03:23:00,
2013-08-26 23:44:00,75.0,72.0,30.03,NNE,29,0.0,1.0,90,0.00,,,0.01,,2013-08-27 03:44:00,
2013-08-26 23:58:00,75.0,72.0,30.03,East,81,0.0,3.0,90,0.00,,,0.01,,2013-08-27 03:58:00,